Sisseton, SD

12:54 AM CDT on October 22, 2017 (GMT -0500)
Sisseton

Weather History for K8D3 - June, 2014

Change the Weather History Date:

Wednesday, June 25, 2014

  Actual Average Record
Temperature  
Mean Temperature 66 °F 68 °F  
Max Temperature 74 °F 80 °F 103 °F (1936)
Min Temperature 58 °F 57 °F 43 °F (1958)
Degree Days  
Heating Degree Days 0 1  
Month to date heating degree days 35 58  
Since 1 June heating degree days 35 58  
Since 1 July heating degree days 9090 8279  
Cooling Degree Days 1 4  
Month to date cooling degree days 54 70  
Year to date cooling degree days 115 93  
Since 1 June cooling degree days 54 70  
Growing Degree Days 15 (Base 50)    
Moisture  
Dew Point 59 °F    
Average Humidity 81    
Maximum Humidity 100    
Minimum Humidity 61    
Precipitation  
Precipitation 0.00 in 0.12 in 1.10 in (1956)
Month to date precipitation 8.33 3.22  
Year to date precipitation 16.70 10.20  
Sea Level Pressure  
Sea Level Pressure 29.99 in    
Wind  
Wind Speed 6 mph (NE)    
Max Wind Speed 13 mph    
Max Gust Speed 15 mph    
T = Trace of Precipitation, MM = Missing Value Source: NWS Daily Summary

Daily Weather History Graph

Daily Weather History Graph

Search for Another Location

Airport or City:

Trip Planner

Search our weather history database for the weather conditions in past years. The results will help you decide how hot, cold, wet, or windy it might be!

Date:

Astronomy

Jun. 25, 2014 Rise Set
Actual Time 5:39 AM CDT 9:21 PM CDT
Civil Twilight 5:01 AM CDT 9:59 PM CDT
Nautical Twilight 4:10 AM CDT 10:50 PM CDT
Astronomical Twilight 3:00 AM CDT 12:00 AM CDT
Moon 4:37 AM CDT (6/25) 7:49 PM CDT (6/25)
Length of Visible Light 16h 58m
Length of Day
15h 41m
Waning Crescent, 3% of the Moon is Illuminated
Jun 25
Waning Crescent
Jun 27
New
Jul 5
First Quarter
Jul 12
Full
Jul 18
Last Quarter

Hourly Weather History & Observations

Time (CDT) Temp. Dew Point Humidity Pressure Visibility Wind Dir Wind Speed Gust Speed Precip Events Conditions
12:56 AM 59.0 °F 59.0 °F 100% 29.99 in - NNW 6.9 mph - N/A   Unknown
1:56 AM 59.0 °F 59.0 °F 100% 30.00 in - North 5.8 mph - N/A   Unknown
2:56 AM 60.1 °F 59.0 °F 96% 30.00 in - NNW 3.5 mph - N/A   Unknown
3:56 AM 59.0 °F 57.9 °F 96% 30.00 in - NW 6.9 mph - N/A   Unknown
4:56 AM 60.1 °F 57.9 °F 93% 30.00 in - NNW 8.1 mph - N/A   Unknown
5:56 AM 57.9 °F 57.9 °F 100% 30.01 in - NW 5.8 mph - N/A   Unknown
6:56 AM 61.0 °F 59.0 °F 93% 30.01 in - North 5.8 mph - N/A   Unknown
7:56 AM 61.0 °F 57.9 °F 90% 30.02 in - NNW 5.8 mph - N/A   Unknown
8:56 AM 61.0 °F 57.0 °F 87% 30.03 in - NNW 8.1 mph - N/A   Unknown
9:56 AM 63.0 °F 57.0 °F 81% 30.03 in - NNE 8.1 mph - N/A   Unknown
10:56 AM 64.9 °F 57.9 °F 78% 30.02 in - NE 4.6 mph - N/A   Unknown
11:56 AM 64.9 °F 57.0 °F 75% 30.03 in - Calm Calm - N/A   Unknown
12:56 PM 66.9 °F 57.0 °F 70% 30.02 in - Calm Calm - N/A   Unknown
1:56 PM 68.0 °F 57.0 °F 68% 30.01 in - SSE 3.5 mph - N/A   Unknown
2:56 PM 71.1 °F 57.9 °F 63% 30.00 in - Variable 4.6 mph - N/A   Unknown
3:56 PM 73.0 °F 59.0 °F 61% 29.98 in - ESE 6.9 mph - N/A   Unknown
4:56 PM 73.0 °F 60.1 °F 64% 29.96 in - ESE 9.2 mph - N/A   Unknown
5:56 PM 73.9 °F 60.1 °F 62% 29.95 in - SE 6.9 mph - N/A   Unknown
6:56 PM 73.0 °F 59.0 °F 61% 29.94 in - ESE 6.9 mph - N/A   Unknown
7:56 PM 73.0 °F 61.0 °F 66% 29.94 in - ESE 4.6 mph - N/A   Unknown
8:56 PM 70.0 °F 61.0 °F 73% 29.94 in - ESE 5.8 mph - N/A   Unknown
9:56 PM 66.0 °F 61.0 °F 84% 29.93 in - SE 5.8 mph - N/A   Unknown
10:56 PM 64.9 °F 61.0 °F 87% 29.94 in - SSE 5.8 mph - N/A   Unknown
11:56 PM 64.9 °F 61.0 °F 87% 29.94 in - SE 9.2 mph - N/A   Unknown